Regional Weather Roundup
Issued by NWS Mt. Holly, NJ

Home | Current Version | Previous Version | Text Only | Print | Product List | Glossary On
Versions: 1 2 3 4 5 6 7 8 9 10 11 12 13 14 15 16 17 18 19 20 21 22 23 24 25 26 27 28 29 30 31 32 33 34 35 36 37 38 39 40 41 42 43 44 45 46 47 48 49 50
000
ASUS41 KPHI 271112
RWRPHI

REGIONAL WEATHER ROUNDUP
NATIONAL WEATHER SERVICE MOUNT HOLLY NJ
700 AM EDT MON MAR 27 2017

NOTE:  "FAIR" INDICATES FEW OR NO CLOUDS BELOW 12,000 FEET WITH NO
SIGNIFICANT WEATHER AND/OR OBSTRUCTIONS TO VISIBILITY.

 * = STATION DOES NOT REPORT PRECIPITATION (E.G. RAIN, SNOW, ETC.)
        OR FOG.

NJZ015>026-271200-
SOUTHERN NEW JERSEY

CITY           SKY/WX    TMP DP  RH WIND       PRES   REMARKS
POMONA         FOG       45  44  97 E6        30.11F VSB 1/4
WILDWOOD*      CLOUDY    44  44 100 SE3       30.12S FOG
MILLVILLE      CLOUDY    46  46 100 VRB3      30.10F
WRIGHTSTOWN    FOG       43  41  93 E3        30.08F VSB 3/4
MOUNT HOLLY    CLOUDY    42  42 100 VRB3      30.11F
TRENTON        LGT RAIN  40  40 100 E6        30.10F VSB 1

$$
NJZ001>014-271200-
NORTHERN NEW JERSEY

CITY           SKY/WX    TMP DP  RH WIND       PRES   REMARKS
SUSSEX         LGT RAIN  36  36 100 CALM      30.10F
ANDOVER*         N/A     37  36  96 CALM      30.10F
MORRISTOWN     LGT RAIN  37  37 100 E5        30.14S WCI  34
NEWARK         DRZL/FOG  40  40 100 N6        30.14F VSB 1/2
TETERBORO      LGT RAIN  39  38  96 E5G17     30.13F VSB 1
CALDWELL       LGT RAIN  38  37  97 E6        30.14F FOG     WCI  33
SOMERVILLE       N/A     39  38  96 CALM      30.11  FOG
ALLAIRE*       LGT RAIN  42  41  96 E7        30.13F VSB 1/4
TOMS RIVER*    FOG       42  42 100 CALM      30.12F VSB 1/4

$$
PAZ043-044-047-054-055-060>062-066>071-271200-
EASTERN PENNSYLVANIA

CITY           SKY/WX    TMP DP  RH WIND       PRES   REMARKS
PHILADELPHIA   FOG       43  42  97 E6        30.11F VSB 3/4
NORTH PHILA    LGT RAIN  43  42  97 E6        30.12F VSB 3/4
BLUE BELL*     CLOUDY    39  39 100 CALM      30.09F VSB 1/2
DOYLESTOWN     CLOUDY    39  39 100 E3        30.09F FOG
QUAKERTOWN*    CLOUDY    39  39 100 CALM      30.11R
PERKASIE*      LGT RAIN  39  39 100 CALM      30.10S VSB 1/2
POTTSTOWN      RAIN      40  40 100 CALM      30.12S VSB 1/2
LANCASTER      LGT RAIN  42  42 100 E3        30.09S FOG
COATESVILLE    LGT RAIN  41  41 100 CALM      30.11R VSB<1/4
READING        LGT RAIN  41  41 100 NW5       30.10S
ALLENTOWN      RAIN      40  37  89 CALM      30.11S FOG
MOUNT POCONO   MIX PCPN  32  32 100 SE6       30.04F FOG     WCI  26
HAZLETON       LGT RAIN  36  36 100 SE5       30.07R WCI  32
LEHIGHTON      LGT RAIN  37  37 100 NE3       30.10F
WILKES BARRE   LGT RAIN  39  39 100 CALM      30.05R FOG

$$
DEZALL-MDZ008-012-015-019-020-271200-
DELAWARE AND EASTERN MARYLAND

CITY           SKY/WX    TMP DP  RH WIND       PRES   REMARKS
WILMINGTON     FOG       43  43 100 NE3       30.11S VSB 1/2
DOVER          FOG       46  46 100 SE6       30.09F VSB 3/4
GEORGETOWN     CLOUDY    47  46  97 S5        30.11S
EASTON         CLOUDY    48  46  93 CALM      30.13S FOG
ABERDEEN       FOG       44  44  99 CALM      30.12S VSB 1/4
PATUXENT       CLOUDY    47  47 100 CALM      30.09R
OCEAN CITY     MOCLDY    46  44  93 S3        30.13S
WALLOPS ISLAND MOCLDY    50  50 100 S9        30.14R
CAMBRIDGE      PTCLDY    52  50  93 VRB7      30.09F
SALISBURY      PTCLDY    52  52 100 S7        30.11S

$$
PAZ001-021-NYZ056-072-MDZ011-DCZ001-271200-
OTHER NEARBY LOCATIONS

CITY           SKY/WX    TMP DP  RH WIND       PRES   REMARKS
HARRISBURG     CLOUDY    42  42 100 E5        30.09S
STATE COLLEGE  CLOUDY    41  39  93 CALM      30.03F
WILLIAMSPORT   CLOUDY    41  38  89 E6        30.06F
BINGHAMTON     LGT RAIN  35  35 100 S8        29.99F FOG     WCI  29
NEW YORK CITY  LGT RAIN  39  38  96 VRB5      30.15F FOG
BALTIMORE      FOG       44  44 100 CALM      30.10F VSB 1/2
WASHINGTON DC  DRZL/FOG  48  48 100 N3        30.11S VSB 1/2

$$



USA.gov is the U.S. government's official web portal to all federal, state and local government web resources and services.